Regional Weather Roundup
Issued by NWS

Home | Current Version | Previous Version | Graphics & Text | Print | Product List | Glossary On
Versions: 1 2 3 4 5 6 7 8 9 10 11 12 13 14 15 16 17 18 19 20 21 22 23 24 25 26 27 28 29 30 31 32 33 34 35 36 37 38 39 40 41 42 43 44 45 46 47 48 49 50
000
ASUS43 KLSX 282210
RWRMO

WEATHER SUMMARY FOR MISSOURI
NATIONAL WEATHER SERVICE SPRINGFIELD MO
500 PM CDT WED SEP 28 2016

NOTE: "FAIR" INDICATES FEW OR NO CLOUDS BELOW 12,000 FEET WITH NO
       SIGNIFICANT WEATHER AND/OR OBSTRUCTIONS TO VISIBILITY.
       CURRENT SKY AND/OR WEATHER CONDITIONS ARE NOT AVAILABLE FOR
       CHILLICOTHE AND FARMINGTON.

MOZ001>031-035>038-043-044-053-054-282300-
...NORTHERN AND WESTERN MISSOURI...

CITY           SKY/WX    TMP DP  RH WIND       PRES   REMARKS
KANSAS CTY INT MOSUNNY   66  47  50 N12       30.16R
KANSAS C DTWN  SUNNY     68  46  45 N16G22    30.14R
LEE`S SUMMIT   SUNNY     66  48  52 NE15      30.15R
ST JOSEPH      SUNNY     67  47  48 N16       30.18R
CHILLICOTHE      N/A     65  47  52 N7        30.17R
KIRKSVILLE     PTSUNNY   62  49  62 NW13      30.15R

$$
MOZ066>068-077>081-088>096-101>105-282300-
...SOUTHWEST MISSOURI...

CITY           SKY/WX    TMP DP  RH WIND       PRES   REMARKS
SPRINGFIELD    SUNNY     70  46  42 N13       30.08R
JOPLIN         SUNNY     71  48  43 N10G21    30.10R
BRANSON        SUNNY     73  45  35 NW12G17   30.05R

$$
MOZ032>034-039>042-045>050-055>058-069>072-282300-
...CENTRAL MISSOURI...

CITY           SKY/WX    TMP DP  RH WIND       PRES   REMARKS
COLUMBIA       PTSUNNY   67  47  48 N15       30.10R
JEFFERSON CITY MOSUNNY   68  46  45 N10       30.09R
ROLLA          MOSUNNY   66  46  48 N13       30.07R
SEDALIA        MOSUNNY   70  46  42 N12G24    30.13R
WHITEMAN AFB   MOSUNNY   67  47  47 N17       30.11R
OSAGE BEACH    SUNNY     67  48  50 VRB6      30.10R

$$
MOZ051-052-059>065-282300-
...EAST CENTRAL MISSOURI...

CITY           SKY/WX    TMP DP  RH WIND       PRES   REMARKS
ST LOUIS INTL  PTSUNNY   66  45  46 N16G23    30.06R
SPIRIT OF STL  PTSUNNY   66  46  48 N13       30.05R
ST CHARLES     CLOUDY    63  47  55 N18G24    30.07R

$$
MOZ072>076-082>087-097>100-106>115-282300-
...SOUTH CENTRAL AND SOUTHEAST MISSOURI...

CITY           SKY/WX    TMP DP  RH WIND       PRES   REMARKS
CAPE GIRARDEAU MOSUNNY   69  46  43 N16       29.99R
FARMINGTON     MOSUNNY   65  47  52 N10G18    30.04R
POPLAR BLUFF   SUNNY     74  49  41 N14       29.97R
WEST PLAINS    SUNNY     72  45  37 N9        30.05R

$$



USA.gov is the U.S. government's official web portal to all federal, state and local government web resources and services.